Newberry, SC

7:28 AM EDT on May 27, 2017 (GMT -0400)
Newberry

Weather History for KEOE - January, 2013

Change the Weather History Date:

Sunday, January 27, 2013

  Actual Average (KFDW) Record (KFDW)
Temperature  
Mean Temperature 40 °F -  
Max Temperature 50 °F 52 °F 68 °F (2012)
Min Temperature 30 °F 30 °F 30 °F (2015)
Degree Days  
Heating Degree Days 25    
Moisture  
Dew Point 31 °F    
Average Humidity 74    
Maximum Humidity 100    
Minimum Humidity 43    
Precipitation  
Precipitation 0.00 in - - ()
Sea Level Pressure  
Sea Level Pressure 30.49 in    
Wind  
Wind Speed 5 mph (ENE)    
Max Wind Speed 10 mph    
Max Gust Speed -    
Visibility 9 miles    
Events      
Averages and records for this station are not official NWS values.
T = Trace of Precipitation, MM = Missing Value Source: NWS Daily Summary

Daily Weather History Graph

Daily Weather History Graph

Search for Another Location

Airport or City:

Trip Planner

Search our weather history database for the weather conditions in past years. The results will help you decide how hot, cold, wet, or windy it might be!

Date:

Astronomy

Jan. 27, 2013 Rise Set
Actual Time 7:27 AM EST 5:51 PM EST
Civil Twilight 7:00 AM EST 6:18 PM EST
Nautical Twilight 6:30 AM EST 6:48 PM EST
Astronomical Twilight 6:00 AM EST 7:18 PM EST
Moon 6:40 PM EST 7:23 AM EST
Length of Visible Light 11h 17m
Length of Day
10h 24m
Full, 100% of the Moon is Illuminated
Jan 27
Full
Feb 3
Last Quarter
Feb 10
New
Feb 17
First Quarter
Feb 25
Full

Hourly Weather History & Observations

Time (EST) Temp. Windchill Dew Point Humidity Pressure Visibility Wind Dir Wind Speed Gust Speed Precip Events Conditions
12:15 AM 37.4 °F 33.8 °F 32.0 °F 81% 30.36 in 10.0 mi East 4.6 mph - N/A   Clear
12:35 AM 37.4 °F 32.8 °F 32.0 °F 81% 30.37 in 10.0 mi ENE 5.8 mph - N/A   Clear
12:55 AM 37.4 °F 32.8 °F 32.0 °F 81% 30.37 in 10.0 mi East 5.8 mph - N/A   Clear
1:15 AM 35.6 °F 31.7 °F 32.0 °F 87% 30.37 in 10.0 mi East 4.6 mph - N/A   Clear
1:35 AM 35.6 °F 32.8 °F 32.0 °F 87% 30.39 in 10.0 mi East 3.5 mph - N/A   Clear
1:55 AM 35.6 °F 31.7 °F 32.0 °F 87% 30.39 in 10.0 mi ENE 4.6 mph - N/A   Clear
2:15 AM 33.8 °F 28.6 °F 32.0 °F 93% 30.39 in 10.0 mi ENE 5.8 mph - N/A   Clear
2:35 AM 33.8 °F 29.6 °F 32.0 °F 93% 30.40 in 10.0 mi ENE 4.6 mph - N/A   Clear
2:55 AM 32.0 °F 27.5 °F 32.0 °F 100% 30.41 in 10.0 mi NE 4.6 mph - N/A   Clear
3:15 AM 32.0 °F 27.5 °F 32.0 °F 100% 30.42 in 10.0 mi NE 4.6 mph - N/A   Clear
3:35 AM 32.0 °F 27.5 °F 32.0 °F 100% 30.43 in 10.0 mi NE 4.6 mph - N/A   Clear
3:55 AM 32.0 °F 26.4 °F 32.0 °F 100% 30.43 in 10.0 mi NE 5.8 mph - N/A   Clear
4:15 AM 32.0 °F 27.5 °F 32.0 °F 100% 30.43 in 10.0 mi NE 4.6 mph - N/A   Clear
4:35 AM 32.0 °F 27.5 °F 32.0 °F 100% 30.43 in 10.0 mi NE 4.6 mph - N/A   Clear
4:55 AM 32.0 °F 26.4 °F 32.0 °F 100% 30.44 in 10.0 mi NE 5.8 mph - N/A   Clear
5:15 AM 32.0 °F 26.4 °F 32.0 °F 100% 30.45 in 10.0 mi NE 5.8 mph - N/A   Clear
5:35 AM 32.0 °F 24.8 °F 32.0 °F 100% 30.46 in 10.0 mi NE 8.1 mph - N/A   Clear
5:55 AM 30.2 °F 22.6 °F 30.2 °F 100% 30.46 in 10.0 mi NE 8.1 mph - N/A   Clear
6:15 AM 30.2 °F 21.9 °F 30.2 °F 100% 30.47 in 7.0 mi NE 9.2 mph - N/A   Clear
6:35 AM 30.2 °F 23.4 °F 30.2 °F 100% 30.48 in 7.0 mi NE 6.9 mph - N/A   Clear
6:55 AM 30.2 °F 22.6 °F 30.2 °F 100% 30.49 in 7.0 mi NE 8.1 mph - N/A   Clear
7:15 AM 30.2 °F 22.6 °F 30.2 °F 100% 30.50 in 7.0 mi NE 8.1 mph - N/A   Clear
7:35 AM 30.2 °F 25.4 °F 30.2 °F 100% 30.52 in 4.0 mi NNE 4.6 mph - N/A   Clear
7:55 AM 30.2 °F 24.3 °F 30.2 °F 100% 30.53 in 4.0 mi NNE 5.8 mph - N/A   Clear
8:15 AM 32.0 °F 25.6 °F 32.0 °F 100% 30.54 in 4.0 mi NE 6.9 mph - N/A   Clear
8:35 AM 32.0 °F 26.4 °F 32.0 °F 100% 30.54 in 4.0 mi NE 5.8 mph - N/A   Clear
8:55 AM 32.0 °F 24.8 °F 32.0 °F 100% 30.55 in 4.0 mi NE 8.1 mph - N/A   Clear
9:15 AM 33.8 °F 27.7 °F 32.0 °F 93% 30.55 in 5.0 mi NE 6.9 mph - N/A   Clear
9:35 AM 33.8 °F 27.7 °F 32.0 °F 93% 30.56 in 7.0 mi ENE 6.9 mph - N/A   Clear
9:55 AM 35.6 °F 29.9 °F 32.0 °F 87% 30.55 in 10.0 mi NE 6.9 mph - N/A   Clear
10:15 AM 37.4 °F 30.3 °F 30.2 °F 75% 30.55 in 10.0 mi ENE 10.4 mph - N/A   Clear
10:35 AM 39.2 °F 34.2 °F 30.2 °F 70% 30.56 in 10.0 mi East 6.9 mph - N/A   Clear
10:55 AM 41.0 °F 37.1 °F 28.4 °F 61% 30.56 in 10.0 mi East 5.8 mph - N/A   Clear
11:15 AM 41.0 °F 37.1 °F 26.6 °F 57% 30.55 in 10.0 mi East 5.8 mph - N/A   Clear
11:35 AM 42.8 °F 40.1 °F 28.4 °F 57% 30.56 in 10.0 mi East 4.6 mph - N/A   Clear
11:55 AM 42.8 °F 40.1 °F 28.4 °F 57% 30.56 in 10.0 mi East 4.6 mph - N/A   Clear
12:15 PM 44.6 °F 41.4 °F 28.4 °F 53% 30.56 in 10.0 mi NE 5.8 mph - N/A   Clear
12:35 PM 44.6 °F - 28.4 °F 53% 30.55 in 10.0 mi Calm Calm - N/A   Clear
12:55 PM 46.4 °F 44.3 °F 28.4 °F 50% 30.53 in 10.0 mi ESE 4.6 mph - N/A   Clear
1:15 PM 46.4 °F 44.3 °F 28.4 °F 50% 30.51 in 10.0 mi East 4.6 mph - N/A   Clear
1:35 PM 46.4 °F - 28.4 °F 50% 30.51 in 10.0 mi Calm Calm - N/A   Clear
1:55 PM 46.4 °F 43.5 °F 28.4 °F 50% 30.49 in 10.0 mi ESE 5.8 mph - N/A   Clear
2:15 PM 50.0 °F - 28.4 °F 43% 30.49 in 10.0 mi SE 5.8 mph - N/A   Clear
2:35 PM 50.0 °F - 28.4 °F 43% 30.48 in 10.0 mi East 9.2 mph - N/A   Clear
2:55 PM 50.0 °F - 30.2 °F 47% 30.49 in 10.0 mi East 5.8 mph - N/A   Clear
3:15 PM 50.0 °F - 30.2 °F 47% 30.49 in 10.0 mi East 5.8 mph - N/A   Clear
3:35 PM 50.0 °F - 30.2 °F 47% 30.49 in 10.0 mi East 5.8 mph - N/A   Clear
3:55 PM 50.0 °F - 30.2 °F 47% 30.49 in 10.0 mi East 4.6 mph - N/A   Mostly Cloudy
4:15 PM 50.0 °F - 30.2 °F 47% 30.48 in 10.0 mi SE 3.5 mph - N/A   Overcast
4:35 PM 50.0 °F - 30.2 °F 47% 30.49 in 10.0 mi East 3.5 mph - N/A   Scattered Clouds
4:55 PM 50.0 °F - 30.2 °F 47% 30.49 in 10.0 mi East 3.5 mph - N/A   Clear
5:15 PM 46.4 °F 45.2 °F 30.2 °F 53% 30.50 in 10.0 mi ENE 3.5 mph - N/A   Clear
5:35 PM 46.4 °F 44.3 °F 30.2 °F 53% 30.49 in 10.0 mi East 4.6 mph - N/A   Clear
5:55 PM 44.6 °F 43.1 °F 30.2 °F 57% 30.50 in 10.0 mi ENE 3.5 mph - N/A   Clear
6:15 PM 44.6 °F 42.2 °F 30.2 °F 57% 30.51 in 10.0 mi NE 4.6 mph - N/A   Clear
6:35 PM 42.8 °F - 30.2 °F 61% 30.51 in 10.0 mi Calm Calm - N/A   Clear
6:55 PM 42.8 °F 40.1 °F 30.2 °F 61% 30.51 in 10.0 mi East 4.6 mph - N/A   Clear
7:15 PM 42.8 °F 41.1 °F 32.0 °F 66% 30.51 in 10.0 mi East 3.5 mph - N/A   Clear
7:35 PM 41.0 °F 39.0 °F 32.0 °F 70% 30.51 in 10.0 mi East 3.5 mph - N/A   Clear
7:55 PM 41.0 °F 39.0 °F 30.2 °F 65% 30.51 in 10.0 mi East 3.5 mph - N/A   Clear
8:15 PM 42.8 °F 41.1 °F 30.2 °F 61% 30.51 in 10.0 mi ENE 3.5 mph - N/A   Clear
8:35 PM 41.0 °F 38.0 °F 32.0 °F 70% 30.51 in 10.0 mi East 4.6 mph - N/A   Clear
8:55 PM 41.0 °F 37.1 °F 32.0 °F 70% 30.51 in 10.0 mi East 5.8 mph - N/A   Scattered Clouds
9:15 PM 41.0 °F 37.1 °F 30.2 °F 65% 30.51 in 10.0 mi East 5.8 mph - N/A   Scattered Clouds
9:35 PM 42.8 °F 40.1 °F 30.2 °F 61% 30.52 in 10.0 mi East 4.6 mph - N/A   Mostly Cloudy
9:55 PM 41.0 °F 38.0 °F 30.2 °F 65% 30.52 in 10.0 mi ESE 4.6 mph - N/A   Overcast
10:15 PM 41.0 °F 38.0 °F 30.2 °F 65% 30.52 in 10.0 mi ESE 4.6 mph - N/A   Mostly Cloudy
10:35 PM 41.0 °F 38.0 °F 30.2 °F 65% 30.52 in 10.0 mi ESE 4.6 mph - N/A   Scattered Clouds
10:55 PM 41.0 °F 38.0 °F 30.2 °F 65% 30.52 in 10.0 mi ESE 4.6 mph - N/A   Mostly Cloudy
11:15 PM 41.0 °F 39.0 °F 30.2 °F 65% 30.51 in 10.0 mi ESE 3.5 mph - N/A   Overcast
11:55 PM 39.2 °F 35.9 °F 30.2 °F 70% 30.48 in 10.0 mi ESE 4.6 mph - N/A   Clear